Starlink 5699

operational
NORAD ID: 55449 Int'l Des: 2023-015 Owner: SPXS Country: US Constellation: starlink
LEOCIRCULAR

About Starlink 5699

Description loading...

Live Position

Loading 3D Globe...

Upcoming Passes

Altitude History

Altitude vs Time

uPlot chart will show altitude changes over time

Two-Line Element Set

1 55449U 23015A 25349.89237877 .00001749 00000-0 14457-3 0 9997
2 55449 43.0043 61.7575 0001369 270.5351 89.5334 15.02529844159081
Epoch: Dec 15, 2025 • Age: 14 hours

Current Status

Altitude 558.4 km
Velocity 7.59 km/s
Sub-Earth Point 13.58°N, 170.06°E
Launch Date Feb 2, 2023
Age 2.8 years
Type internet

Technical Details

Classification Payload
Mass 305.00 kg
Dry Mass 290.00 kg
Total Mass 305.00 kg
Length 0.20 m
Diameter 2.80 m
Span 9.00 m
Shape Box + pan
Manufacturer SPXS
Bus Type Starlink
Phase Status In Orbit
Owner/State SPXS/US

Large Constellations

Loading constellations...